• Join FlightAware (Why Join?)
  • Login
  • US Flag 
05:17AM EDT


 

Airport Tracker/Info


-or-


 

Live Flight TrackerFlight Track Log ✈ DAL3796 ✈ 09-May-2013 ✈ KGRR - KDTW

Flight Track Log - Related Links

Times and Time Zones

All times are in EDT time to prevent confusion due to time zone crossing. See the DAL3796 flight status page for this flight to view local times or setup timezone preferences in your user account.

Time Position Orientation Groundspeed Altitude Reporting Facility
EDT Latitude Longitude Course Direction KTS MPH feet Rate Location/Type
03:47PM 42.8733 -85.5761 60° Northeast 179 206 2,500  Level Chicago Center
03:48PM 42.9069 -85.6289 311° West 247 284 4,700 2,220 Climbing Chicago Center
03:49PM 42.8333 -85.3392 90° East  Level FlightAware Approximate
03:49PM 42.9447 -85.5500 57° Northeast 266 306 7,100  Level Chicago Center
03:50PM 42.8631 -85.2561 62° Northeast  Level FlightAware Approximate
03:50PM 42.9714 -85.4222 74° East 290 334 10,200  Level Chicago Center
03:51PM 42.8949 -85.1735 62° Northeast  Level FlightAware Approximate
03:51PM 42.9958 -85.3014 75° East 324 373 11,000  Level Chicago Center
03:52PM 42.9340 -85.0763 60° Northeast  Level FlightAware Approximate
03:52PM 43.0211 -85.1706 75° East 359 413 11,000  Level Chicago Center
03:53PM 43.0442 -85.0522 75° East 327 376 11,000  Level Chicago Center
03:54PM 43.0675 -84.9322 75° East 328 377 11,000  Level Chicago Center
03:55PM 43.0761 -84.7878 85° East 324 373 11,000  Level Chicago Center
03:56PM 43.0547 -84.6772 105° East 301 346 11,000  Level Chicago Center
03:57PM 43.0289 -84.5681 108° East 302 348 11,000  Level Chicago Center
03:58PM 43.0044 -84.4572 107° East 305 351 11,000  Level Chicago Center
03:59PM 42.9781 -84.3492 108° East 304 350 11,000  Level Cleveland Center
04:00PM 42.9581 -84.2600 107° East 301 346 11,000  Level Cleveland Center
04:01PM 42.9231 -84.1161 108° East 311 358 11,000  Level Cleveland Center
04:02PM 42.8933 -83.9897 108° East 330 380 11,000  Level Cleveland Center
04:03PM 42.8639 -83.8578 107° East 352 405 11,000  Level Cleveland Center
04:04PM 42.8297 -83.7400 112° Southeast 345 397 11,000 -420 Level Cleveland Center
04:05PM 42.7581 -83.6883 152° Southeast 293 337 10,200 -1,020 Descending Cleveland Center
04:06PM 42.6950 -83.6286 145° Southeast 278 320 9,000 -1,020 Descending Cleveland Center
04:07PM 42.6367 -83.5525 136° Southeast 286 329 8,300 -960 Descending Cleveland Center
04:08PM 42.5822 -83.4764 134° Southeast 290 334 7,100 -1,080 Descending Cleveland Center
04:09PM 42.5197 -83.3947 136° Southeast 278 320 6,000 -1,080 Descending Cleveland Center
04:10PM 42.4544 -83.3300 144° Southeast 276 318 4,900 -1,140 Descending Cleveland Center
04:11PM 42.3867 -83.2931 158° South 254 292 3,700 -1,200 Descending Cleveland Center